Location: Caracas
(10.5000°N, 66.9170°W)
Time: 18:48:22
(UTC-04:00)

N. Korean satellite - Visible Passes

Search period start: 24 June 2018 00:00
Search period end: 04 July 2018 00:00
Orbit: 459 x 511 km, 97.2° (Epoch: 23 June)

Date Brightness Start Highest point End Pass type
(mag) Time Alt. Az. Time Alt. Az. Time Alt. Az.
27 Jun 9.5 19:16:35 10° SW 19:18:45 15° W 19:20:56 10° WNW visible
01 Jul 10.0 05:48:23 10° E 05:49:13 11° E 05:50:02 10° ESE visible
01 Jul 9.5 19:13:18 10° SW 19:15:43 17° W 19:18:10 10° NW visible
